Weather reports worldwide

Advertisment
Kiruna Airport, Sweden (2044): temperature & dewpoint: 06.12.2019 17:00:00 - 12.12.2019 17:00:00 (CET)Kiruna Airport, Sweden (2044): wind speed: 06.12.2019 17:00:00 - 12.12.2019 17:00:00 (CET)Kiruna Airport, Sweden (2044): wind direction: 06.12.2019 17:00:00 - 12.12.2019 17:00:00 (CET)Kiruna Airport, Sweden (2044): reduced air pressure: 06.12.2019 17:00:00 - 12.12.2019 17:00:00 (CET)Kiruna Airport, Sweden (2044): visibility: 06.12.2019 17:00:00 - 12.12.2019 17:00:00 (CET)
Date & Time tt [°C] td [°C] ff [km/h] ff [kn] dd ppp [hPa] vv [km]
12.12.2019 17:00:00 -1,0 -3,0 15 8 S - 10
12.12.2019 16:00:00 -1,7 -2,8 13 7 S 991,0 10
12.12.2019 15:00:00 -1,6 -3,2 16 9 S 991,2 10
12.12.2019 14:00:00 -2,0 -3,4 18 10 S 991,4 10
12.12.2019 13:00:00 -2,0 -3,7 16 9 S 991,7 10
12.12.2019 12:00:00 -2,1 -3,8 13 7 S 991,7 10
12.12.2019 11:00:00 -2,3 -3,9 13 7 S 991,7 10
12.12.2019 10:00:00 -2,3 -4,2 21 11 SSW 991,9 10
12.12.2019 09:00:00 -2,5 -4,2 16 9 S 991,8 10
12.12.2019 08:00:00 -3,1 -4,2 11 6 S 991,6 10
12.12.2019 07:00:00 -3,5 -4,5 15 8 S 991,4 10
12.12.2019 06:00:00 -3,5 -4,5 21 11 S 991,3 10
12.12.2019 05:00:00 -4,2 -5,0 13 7 S 991,6 10
12.12.2019 04:00:00 -5,8 -6,5 16 9 SSW 991,6 10
12.12.2019 03:00:00 -5,8 -6,5 11 6 WSW 991,5 10
12.12.2019 02:00:00 -7,3 -7,8 16 9 SSW 991,3 10
12.12.2019 01:00:00 -6,4 -7,2 9 5 SSW 990,8 10
12.12.2019 00:00:00 -5,1 -6,6 26 14 SSW 990,1 10
11.12.2019 23:00:00 -4,4 -6,1 18 10 SW 989,4 10
11.12.2019 22:00:00 -5,0 -6,5 21 11 SW 989,1 10
11.12.2019 21:00:00 -3,8 -5,6 15 8 SW 988,2 10
11.12.2019 20:00:00 -3,8 -5,5 24 13 SSW 987,0 10
11.12.2019 19:00:00 -3,3 -4,7 16 9 SW 985,6 10
11.12.2019 18:00:00 -2,4 -3,8 18 10 SW 984,5 10
11.12.2019 17:00:00 -2,3 -3,4 28 15 SW 983,7 10
11.12.2019 16:00:00 -2,5 -3,2 29 16 SSW 983,1 4,0
11.12.2019 15:00:00 -2,5 -3,2 22 12 S 983,1 3,0
11.12.2019 14:00:00 -2,8 -3,6 16 9 S 983,1 2,0
11.12.2019 13:00:00 -3,0 -4,0 22 12 S 983,4 4,0
11.12.2019 12:00:00 -3,4 -4,5 18 10 SSE 984,4 4,0
11.12.2019 11:00:00 -3,7 -4,7 18 10 SSE 985,1 2,5
11.12.2019 10:00:00 -4,1 -5,3 18 10 SSE 986,5 4,0
11.12.2019 09:00:00 -5,0 -6,1 16 9 SE 987,6 2,2
11.12.2019 08:00:00 -6,3 -7,1 15 8 SE 989,2 3,0
11.12.2019 07:00:00 -13,3 -14,6 11 6 NNE 991,8 4,0
11.12.2019 06:00:00 -15,6 -17,1 8 4 N 993,7 4,0
11.12.2019 05:00:00 -17,7 -19,5 8 4 N 995,8 0,3
11.12.2019 04:00:00 -19,8 -21,7 8 4 NNE 997,6 2,1
11.12.2019 03:00:00 -19,5 -21,4 4 2 N 999,7 10
11.12.2019 02:00:00 -19,9 -21,8 4 2 NNE 1001,0 10
11.12.2019 01:00:00 -20,8 -22,8 4 2 NNE 1002,3 10
11.12.2019 00:00:00 -18,8 -20,6 8 4 N 1003,5 10
10.12.2019 23:00:00 -14,9 -16,9 8 4 WSW 1004,0 10
10.12.2019 22:00:00 -14,8 -16,8 9 5 SW 1004,9 10
10.12.2019 21:00:00 -14,4 -16,2 13 7 SW 1005,4 10
10.12.2019 20:00:00 -16,1 -17,8 13 7 WSW 1005,8 10
10.12.2019 19:00:00 -17,3 -19,8 13 7 SW 1006,4 10
10.12.2019 18:00:00 -14,8 -17,0 11 6 SSW 1006,5 10
10.12.2019 17:00:00 -16,8 -19,1 16 9 SW 1007,1 10
10.12.2019 16:00:00 -12,5 -15,5 13 7 SW 1006,6 10
10.12.2019 15:00:00 -14,4 -16,8 11 6 WSW 1006,3 10
10.12.2019 14:00:00 -12,8 -15,8 16 9 WSW 1005,8 10
10.12.2019 13:00:00 -13,1 -15,4 18 10 SW 1005,4 10
10.12.2019 12:00:00 -12,8 -14,9 16 9 SW 1005,2 10
10.12.2019 11:00:00 -12,4 -14,8 18 10 SW 1004,9 10
10.12.2019 10:00:00 -11,7 -13,6 9 5 WNW 1003,8 10
10.12.2019 09:00:00 -11,9 -14,1 13 7 WNW 1003,0 10
10.12.2019 08:00:00 -11,0 -13,0 13 7 W 1002,3 10
10.12.2019 07:00:00 -10,0 -12,0 8 4 WNW 1001,3 10
10.12.2019 06:00:00 -8,2 -9,8 13 7 WNW 1000,0 10
10.12.2019 05:00:00 -9,0 -10,9 4 2 - 999,5 10
10.12.2019 04:00:00 -8,7 -10,8 11 6 W 998,1 10
10.12.2019 03:00:00 -10,5 -12,2 9 5 SW 997,2 10
10.12.2019 02:00:00 -7,8 -9,2 8 4 WNW 995,8 10
10.12.2019 01:00:00 -8,2 -9,7 9 5 NNW 994,8 10
10.12.2019 00:00:00 -12,5 -13,8 4 2 W 994,0 50
09.12.2019 23:00:00 -7,7 -8,6 4 2 - 992,3 10
09.12.2019 22:00:00 -9,2 -9,7 5 3 W 991,3 2,1
09.12.2019 21:00:00 -18,5 -20,3 8 4 W 990,9 10
09.12.2019 20:00:00 -17,2 -18,8 8 4 SSW 989,8 10
09.12.2019 19:00:00 -17,6 -19,2 5 3 WSW 988,6 10
09.12.2019 18:00:00 -18,9 -20,9 8 4 SSW 987,9 10
09.12.2019 17:00:00 -16,0 -17,5 5 3 WNW 986,6 10
09.12.2019 16:00:00 -19,2 -21,2 0 0 N 986,1 10
09.12.2019 15:00:00 -18,2 -20,1 4 2 - - 10
09.12.2019 14:00:00 -16,1 -17,8 8 4 WNW 984,0 10
09.12.2019 13:00:00 -12,1 -13,4 9 5 NNW 983,0 10
09.12.2019 12:00:00 -10,5 -11,5 4 2 - 982,0 10
09.12.2019 11:00:00 -9,6 -10,7 5 3 N 981,2 10
09.12.2019 10:00:00 -9,0 -9,9 8 4 N 980,8 10
09.12.2019 09:00:00 -8,6 -9,3 9 5 N 980,3 1,9
09.12.2019 08:00:00 -8,5 -9,3 9 5 N 979,7 1,5
09.12.2019 07:00:00 -8,4 -9,2 11 6 N 979,3 4,0
09.12.2019 06:00:00 -8,3 -9,1 11 6 N 978,8 3,5
09.12.2019 05:00:00 -8,2 -9,0 9 5 N 978,7 1,8
09.12.2019 04:00:00 -8,1 -8,9 13 7 NNE 978,6 1,5
09.12.2019 03:00:00 -7,9 -8,7 13 7 NNE 978,5 2,0
09.12.2019 02:00:00 -7,9 -8,7 9 5 N 978,4 0,1
09.12.2019 01:00:00 -7,8 -8,5 8 4 NNE 978,7 0,4
09.12.2019 00:00:00 -7,6 -8,3 9 5 NNE 978,9 0,3
08.12.2019 23:00:00 -7,6 -8,3 9 5 NNE 979,1 1,6
08.12.2019 22:00:00 -8,0 -8,8 8 4 N 979,5 2,0
08.12.2019 21:00:00 -7,2 -8,0 5 3 N 979,7 10
08.12.2019 20:00:00 -7,6 -8,4 2 1 N 979,8 10
08.12.2019 19:00:00 -7,3 -8,0 4 2 NNE 979,9 1,5
08.12.2019 18:00:00 -7,4 -8,2 4 2 NNE 980,0 7
08.12.2019 17:00:00 -7,0 -7,7 4 2 N 980,1 10
08.12.2019 16:00:00 -6,7 -7,4 4 2 - 980,2 10
08.12.2019 15:00:00 -6,7 -7,4 2 1 N 980,4 7
08.12.2019 14:00:00 -8,0 -8,7 0 0 N 980,5 10
08.12.2019 13:00:00 -10,7 -11,7 0 0 N 981,0 10
08.12.2019 12:00:00 -7,8 -8,6 5 3 N 980,5 10
08.12.2019 11:00:00 -6,7 -7,4 8 4 N 980,0 10
08.12.2019 10:00:00 -6,3 -6,8 4 2 N 980,1 10
08.12.2019 09:00:00 -6,5 -7,0 5 3 N 980,4 10
08.12.2019 08:00:00 -8,0 -8,8 0 0 N 980,5 6
08.12.2019 07:00:00 -9,1 -10,0 0 0 N 980,4 10
08.12.2019 06:00:00 -9,1 -10,0 0 0 N 980,7 10
08.12.2019 05:00:00 -9,5 -10,4 0 0 N 980,5 10
08.12.2019 04:00:00 -11,1 -12,1 0 0 N 980,6 10
08.12.2019 03:00:00 -11,7 -12,9 0 0 N 980,7 10
08.12.2019 02:00:00 -12,9 -14,1 0 0 N 980,8 4,3
08.12.2019 01:00:00 -11,5 -12,7 0 0 N 980,5 2,8
08.12.2019 00:00:00 -11,7 -12,7 0 0 N 980,5 3,3
07.12.2019 23:00:00 -12,1 -13,3 0 0 N 980,3 10
07.12.2019 22:00:00 -11,2 -12,2 0 0 N 980,0 10
07.12.2019 21:00:00 -12,9 -14,1 0 0 N 979,9 10
07.12.2019 20:00:00 -12,8 -14,0 0 0 N 979,6 10
07.12.2019 19:00:00 -11,6 -12,8 0 0 N 979,2 2,4
07.12.2019 18:00:00 -11,7 -12,9 0 0 N 979,1 1,3
07.12.2019 17:00:00 -11,8 -13,0 0 0 N 979,0 6
07.12.2019 16:00:00 -11,6 -12,8 0 0 N 978,9 0,3
07.12.2019 15:00:00 -11,3 -12,5 4 2 ENE 978,6 0,2
07.12.2019 14:00:00 -11,3 -12,3 4 2 NE 978,8 0,4
07.12.2019 13:00:00 -11,2 -12,2 0 0 N 978,9 10
07.12.2019 12:00:00 -10,9 -11,9 0 0 N 979,0 10
07.12.2019 11:00:00 -11,0 -12,0 0 0 N 979,2 10
07.12.2019 10:00:00 -11,0 -12,0 0 0 N 979,2 10
07.12.2019 09:00:00 -11,1 -12,1 0 0 N 979,4 1,2
07.12.2019 08:00:00 -11,1 -12,1 0 0 N 979,2 0,2
07.12.2019 07:00:00 -11,2 -12,2 0 0 N 979,3 0,4
07.12.2019 06:00:00 -11,2 -12,2 4 2 NE 978,9 0,3
07.12.2019 05:00:00 -11,2 -12,2 4 2 - 979,3 0,6
07.12.2019 04:00:00 -11,0 -12,0 0 0 N 979,1 3,0
07.12.2019 03:00:00 -11,4 -12,4 5 3 NE 979,0 10
07.12.2019 02:00:00 -10,8 -11,8 4 2 - 979,1 10
07.12.2019 01:00:00 -10,9 -11,9 4 2 NNE 979,0 3,8
07.12.2019 00:00:00 -11,2 -12,1 0 0 N 979,0 3,4
06.12.2019 23:00:00 -11,6 -12,6 0 0 N 979,0 10
06.12.2019 22:00:00 -11,5 -12,5 0 0 N 978,9 10
06.12.2019 21:00:00 -12,1 -13,3 0 0 N 978,7 10
06.12.2019 20:00:00 -13,9 -15,2 4 2 - 978,7 0,5
06.12.2019 19:00:00 -14,3 -15,4 0 0 N 978,8 10
06.12.2019 18:00:00 -12,2 -13,4 4 2 SW 978,3 10
06.12.2019 17:00:00 -11,8 -13,0 13 7 SW 978,0 10

tt = temperature
td = dewpoint
ff = wind speed
dd = wind direction
ppp = reduced air pressure
vv = visibility

Next stations